Volver al catálogo

COSMOS 1823 DEB

ActivoLEO
NORAD 39806·DEBRIS·🇷🇺 Russia

Lanzado Feb 20, 1987 desde Plesetsk Cosmodrome

Loading…

Próximos Pases (próximas 24 horas)

TLE

ActualizadoSource: Space-Track

Época: Sep 13, 2026, 20:38 UTC

1 39806U 87020EE  26256.86026855  .00000166  00000-0  13671-2 0  9997
2 39806  73.6306 110.8589 0063572 214.5059 145.1850 12.39902713557013

Sigue COSMOS 1823 DEB en tiempo real con AllMySat

Download on the App Store